[[{"header":{"parameterUnit":"m.s-1","parameterCategory":2,"la1":30.2991,"la2":30.254,"lo1":-89.0895,"lo2":-89.0444,"dy":0.0017,"dx":0.0017,"nx":28,"ny":28,"refTime":"2023-10-13T03:00:00:Z","depth":"0","parameterNumber":2,"parameterNumberName":"U-component_of_CURRENTS"},"data":[0,0,0,0,0,0,0,0,0,0,0,0,0,0,0,0,0,0,0,0,0,0,0,0,0,0,0,0,0,0,0,0,0,0,0,0,0,0,0,0,0,0,0,0,0,0,0,0,0,0,0,0,0,0,0,0,0,0,0.239,0.239,0,0.243,0.243,0.243,0.2454,0.2454,0.2454,0.2454,0.25,0.2501,0.2502,0,0,0,0,0,0,0,0,0,0,0,0,0,0.2382,0.2382,0.239,0.239,0.2391,0.243,0.243,0.243,0.2454,0.2454,0.2454,0.2455,0.2499,0.2501,0.2502,0,0,0,0,0,0,0,0,0,0,0,0,0,0.2398,0.2382,0.239,0.2409,0.2411,0.243,0.243,0.243,0.2454,0.2454,0.2454,0.2455,0.2499,0.25,0.2502,0.2503,0,0,0.2506,0.2507,0,0,0,0,0,0,0,0,0.2397,0.2398,0.2405,0.2407,0.241,0.2439,0.2444,0.2455,0.2453,0.2435,0.2454,0.2455,0.2481,0.2484,0.2488,0.2505,0.2507,0.2506,0.2507,0.2508,0.2508,0,0,0,0,0,0,0,0.2396,0.2397,0.2404,0.2406,0.2409,0.2432,0.2434,0.2446,0.2454,0.2437,0.2439,0.2447,0.2482,0.2486,0.2489,0.2507,0.2506,0.2508,0.2508,0.2509,0.2563,0.2564,0,0,0,0,0,0,0.2392,0.2395,0.2402,0.2405,0.2407,0.2432,0.2434,0.2428,0.2454,0.2459,0.2446,0.2448,0.2483,0.2487,0.2491,0.2515,0.2508,0.2509,0.251,0.2563,0.2563,0.2564,0,0,0,0,0,0,0.2391,0.2391,0.2401,0.2404,0.2407,0.2431,0.2424,0.2428,0.2434,0.2461,0.2466,0.2448,0.2484,0.2489,0.2508,0.2516,0.251,0.2511,0.2562,0.2563,0.2564,0.255,0,0,0,0,0,0,0.239,0.239,0.2381,0.2403,0.2406,0.2408,0.2424,0.2429,0.2439,0.2441,0.2464,0.2469,0.2485,0.2506,0.251,0.2518,0.2512,0.2561,0.2562,0.2563,0.2549,0.255,0.255,0,0,0,0,0,0.239,0.2369,0.238,0.2381,0.2393,0.2408,0.2411,0.243,0.2439,0.2437,0.2461,0.2468,0.2516,0.2508,0.2512,0.252,0.2561,0.2562,0.2563,0.2549,0.255,0.255,0,0,0,0,0,0,0.2347,0.237,0.2383,0.2366,0.2387,0.2412,0.2409,0.2427,0.2443,0.2444,0.2472,0.2478,0.2499,0.2512,0.2502,0.2541,0.2541,0.2543,0.2529,0.253,0.253,0.2507,0.2513,0,0,0,0,0,0.2337,0.2332,0.2361,0.2347,0.2357,0.2384,0.2392,0.2407,0.2427,0.2434,0.2456,0.2481,0.2507,0.2519,0.2538,0.2555,0.2564,0.2566,0.2566,0.2567,0.2552,0.2583,0.2584,0.2568,0.2568,0.2568,0,0,0.2313,0.2327,0.2322,0.2339,0.2355,0.2366,0.2389,0.2395,0.2407,0.2436,0.2451,0.2478,0.2511,0.2534,0.2545,0.2546,0.2577,0.2568,0.2568,0.2553,0.2584,0.2586,0.2587,0.2569,0.2569,0.2569,0,0,0.2273,0.2279,0.2271,0.2291,0.2318,0.2341,0.2344,0.2373,0.2388,0.2409,0.2439,0.247,0.2501,0.2532,0.2551,0.2564,0.2576,0.2575,0.256,0.2591,0.2592,0.2593,0.2606,0.2608,0.2578,0.2578,0.2578,0,0.2244,0.2243,0.2269,0.2275,0.2291,0.233,0.2334,0.2353,0.2386,0.2403,0.2409,0.2473,0.25,0.2541,0.2547,0.2564,0.2576,0.2554,0.259,0.2592,0.2593,0.2606,0.2609,0.2578,0.2578,0.2578,0.2578,0,0.2211,0.2215,0.221,0.2237,0.2255,0.2261,0.2302,0.2321,0.2348,0.2375,0.2415,0.2454,0.2495,0.2514,0.2532,0.2564,0.2566,0.2585,0.2585,0.2594,0.2607,0.261,0.2577,0.2577,0.2577,0.2577,0,0,0.2133,0.218,0.2178,0.2198,0.2239,0.2252,0.2275,0.2315,0.2339,0.2369,0.24,0.2446,0.2471,0.2493,0.2529,0.2553,0.2577,0.2567,0.2569,0.257,0.263,0.2693,0.2703,0.2602,0.2603,0.2603,0.2635,0,0.2102,0.2113,0.2145,0.2159,0.2173,0.2224,0.2246,0.2287,0.2328,0.2366,0.2411,0.245,0.2464,0.2491,0.2514,0.2567,0.2584,0.2565,0.2627,0.2629,0.2678,0.2709,0.282,0.2864,0.2638,0.2638,0.2639,0,0.2063,0.2082,0.2091,0.2145,0.2154,0.2168,0.2227,0.2254,0.2319,0.235,0.2393,0.2433,0.2479,0.2488,0.2555,0.2542,0.2574,0.2605,0.2608,0.267,0.2699,0.282,0.2878,0.2787,0.2643,0.2643,0.2643,0,0.2013,0.2046,0.2058,0.2073,0.2133,0.2148,0.2182,0.2245,0.2281,0.2343,0.2376,0.2428,0.247,0.2508,0.2578,0.2566,0.2648,0.2649,0.2728,0.2732,0.2841,0.2854,0.2813,0.2682,0.2682,0.2682,0.2682,0,0.1977,0.1984,0.2036,0.2044,0.2063,0.2114,0.2146,0.2191,0.2257,0.2309,0.2362,0.2419,0.2478,0.2542,0.2578,0.2674,0.2654,0.2726,0.2752,0.284,0.2852,0.2789,0.2708,0.2683,0.2683,0.2683,0.2683,0,0.1925,0.1957,0.1976,0.2028,0.2042,0.2057,0.2124,0.2159,0.222,0.229,0.2312,0.2415,0.2514,0.2575,0.266,0.2698,0.2719,0.2802,0.2893,0.293,0.2917,0.2833,0.269,0.2604,0.2888,0.289,0.2891,0,0.19,0.1905,0.1953,0.1967,0.199,0.2022,0.2055,0.2127,0.2177,0.2303,0.2342,0.2456,0.2571,0.2716,0.2824,0.2916,0.2779,0.3036,0.3037,0.2932,0.2856,0.2673,0.2596,0.317,0.3174,0.3177,0.3179,0,0.1857,0.1875,0.1897,0.1928,0.1957,0.1996,0.205,0.2081,0.2188,0.2265,0.2402,0.2506,0.2709,0.2888,0.3014,0.3087,0.2933,0.3101,0.2983,0.3063,0.287,0.2799,0.31,0.3206,0.3204,0.3202,0.32,0.3199,0.1822,0.1827,0.1862,0.1889,0.1922,0.1967,0.2,0.2075,0.2161,0.2293,0.2426,0.2603,0.2907,0.3138,0.3159,0.3281,0.3095,0.3277,0.3179,0.2996,0.2919,0.3265,0.3407,0.3406,0.3405,0.3403,0.3402,0,0.1781,0.1802,0.1826,0.1858,0.1877,0.1926,0.2,0.2044,0.2136,0.2297,0.2447,0.2808,0.3053,0.3232,0.3471,0.3394,0.3233,0.3286,0.3063,0.2978,0.333,0.3353,0.3502,0.3502,0.3502,0.3502,0.3502,0.3502,0.176,0.177,0.1788,0.1806,0.1838,0.1864,0.191,0.1989,0.21,0.2296,0.2491,0.268,0.3011,0.3335,0.3409,0.3363,0.3037,0.2995,0.2765,0.3059,0.305,0.304,0.3043,0.3125,0.3124,0.2434,0.2428,0.2424]},{"header":{"parameterUnit":"m.s-1","parameterCategory":2,"la1":30.2991,"la2":30.254,"lo1":-89.0895,"lo2":-89.0444,"dy":0.0017,"dx":0.0017,"nx":28,"ny":28,"refTime":"2023-10-13T03:00:00:Z","depth":"0","parameterNumber":3,"parameterNumberName":"V-component_of_CURRENTS"},"data":[0,0,0,0,0,0,0,0,0,0,0,0,0,0,0,0,0,0,0,0,0,0,0,0,0,0,0,0,0,0,0,0,0,0,0,0,0,0,0,0,0,0,0,0,0,0,0,0,0,0,0,0,0,0,0,0,0,0,-0.1612,-0.1612,0,-0.1674,-0.1674,-0.1675,-0.1714,-0.1715,-0.1715,-0.1715,-0.1767,-0.1768,-0.1769,0,0,0,0,0,0,0,0,0,0,0,0,0,-0.1569,-0.1569,-0.1611,-0.1612,-0.1613,-0.1674,-0.1674,-0.1675,-0.1714,-0.1715,-0.1715,-0.1716,-0.1767,-0.1768,-0.1769,0,0,0,0,0,0,0,0,0,0,0,0,0,-0.1603,-0.1569,-0.1611,-0.1641,-0.1644,-0.1673,-0.1674,-0.1675,-0.1714,-0.1715,-0.1715,-0.1716,-0.1766,-0.1768,-0.1769,-0.1769,0,0,-0.1774,-0.1775,0,0,0,0,0,0,0,0,-0.1601,-0.1605,-0.1636,-0.1639,-0.1643,-0.1688,-0.1679,-0.1707,-0.1714,-0.1686,-0.1715,-0.1716,-0.174,-0.1744,-0.1753,-0.1771,-0.1774,-0.1774,-0.1775,-0.1776,-0.1777,0,0,0,0,0,0,0,-0.1599,-0.1603,-0.1635,-0.1637,-0.1641,-0.1666,-0.1671,-0.1684,-0.1708,-0.1689,-0.1692,-0.1701,-0.1742,-0.1751,-0.1754,-0.1774,-0.1774,-0.1776,-0.1777,-0.1777,-0.1784,-0.1784,0,0,0,0,0,0,-0.1591,-0.16,-0.1633,-0.1637,-0.1624,-0.1666,-0.1672,-0.1672,-0.1709,-0.1715,-0.17,-0.1703,-0.1748,-0.1752,-0.1756,-0.1753,-0.1776,-0.1778,-0.1778,-0.1785,-0.1784,-0.1783,0,0,0,0,0,0,-0.159,-0.1593,-0.163,-0.1622,-0.1628,-0.1666,-0.1666,-0.1673,-0.1683,-0.1718,-0.1724,-0.1704,-0.1749,-0.1754,-0.1768,-0.1756,-0.1778,-0.178,-0.1786,-0.1785,-0.1784,-0.1749,0,0,0,0,0,0,-0.1588,-0.1592,-0.1588,-0.1621,-0.1628,-0.1641,-0.1666,-0.1674,-0.1688,-0.1692,-0.1723,-0.1728,-0.175,-0.1765,-0.1769,-0.1758,-0.1781,-0.1787,-0.1785,-0.1784,-0.1752,-0.1747,-0.1744,0,0,0,0,0,-0.1586,-0.1576,-0.1587,-0.1592,-0.1622,-0.1641,-0.1647,-0.1676,-0.1688,-0.1687,-0.1711,-0.1727,-0.1758,-0.1766,-0.1771,-0.176,-0.1788,-0.1786,-0.1784,-0.1753,-0.1748,-0.1744,0,0,0,0,0,0,-0.1557,-0.158,-0.1593,-0.1591,-0.1613,-0.1648,-0.1651,-0.1671,-0.1689,-0.1691,-0.1724,-0.1731,-0.1736,-0.175,-0.1758,-0.1756,-0.1773,-0.1772,-0.1748,-0.1743,-0.1739,-0.1726,-0.1782,0,0,0,0,0,-0.1548,-0.1545,-0.1576,-0.1574,-0.1582,-0.1615,-0.1627,-0.1644,-0.1667,-0.1676,-0.1699,-0.1718,-0.1731,-0.174,-0.1753,-0.1755,-0.1761,-0.1748,-0.1744,-0.1741,-0.1733,-0.1736,-0.1732,-0.1778,-0.1778,-0.1778,0,0,-0.1536,-0.155,-0.1549,-0.1568,-0.1586,-0.1592,-0.1623,-0.1633,-0.1637,-0.1678,-0.1685,-0.1705,-0.1728,-0.1732,-0.1735,-0.1744,-0.1729,-0.1739,-0.1736,-0.1729,-0.1734,-0.173,-0.1726,-0.1776,-0.1777,-0.1777,0,0,-0.1513,-0.1523,-0.1514,-0.1527,-0.155,-0.157,-0.1571,-0.16,-0.1612,-0.1623,-0.165,-0.1665,-0.1686,-0.1702,-0.1713,-0.1693,-0.1708,-0.1692,-0.1665,-0.1669,-0.1665,-0.1662,-0.1658,-0.1655,-0.1691,-0.1691,-0.1691,0,-0.1499,-0.1492,-0.1515,-0.1512,-0.1519,-0.1557,-0.155,-0.1567,-0.1597,-0.1604,-0.1618,-0.1649,-0.1672,-0.1679,-0.1672,-0.1684,-0.1685,-0.1684,-0.1664,-0.1661,-0.1658,-0.1655,-0.1652,-0.1689,-0.169,-0.169,-0.169,0,-0.147,-0.1468,-0.1463,-0.1471,-0.148,-0.1479,-0.1506,-0.1516,-0.1535,-0.1556,-0.1566,-0.1598,-0.1619,-0.1625,-0.1645,-0.1635,-0.164,-0.1659,-0.1677,-0.1652,-0.165,-0.1647,-0.1687,-0.1687,-0.1688,-0.1688,0,0,-0.1428,-0.144,-0.1437,-0.1433,-0.1455,-0.1456,-0.1464,-0.148,-0.1481,-0.1509,-0.151,-0.1538,-0.1559,-0.1571,-0.1597,-0.16,-0.1586,-0.1616,-0.1618,-0.1613,-0.1583,-0.1547,-0.1541,-0.16,-0.16,-0.1599,-0.1586,0,-0.1398,-0.138,-0.1397,-0.1379,-0.137,-0.1404,-0.1405,-0.1424,-0.1448,-0.1459,-0.1494,-0.1502,-0.1537,-0.1543,-0.1554,-0.1579,-0.1578,-0.1587,-0.1606,-0.1606,-0.1579,-0.1537,-0.1407,-0.1381,-0.1584,-0.1584,-0.1583,0,-0.1356,-0.1352,-0.1326,-0.1328,-0.1326,-0.1322,-0.1331,-0.1339,-0.1371,-0.1388,-0.1414,-0.1446,-0.1463,-0.1492,-0.152,-0.1523,-0.1543,-0.1562,-0.1563,-0.1538,-0.1566,-0.144,-0.1369,-0.1463,-0.158,-0.158,-0.158,0,-0.1297,-0.1296,-0.1272,-0.1271,-0.1282,-0.1276,-0.1286,-0.1313,-0.1308,-0.1342,-0.1339,-0.1383,-0.1388,-0.1429,-0.1477,-0.1495,-0.1498,-0.1535,-0.152,-0.1518,-0.1415,-0.1404,-0.1436,-0.154,-0.154,-0.154,-0.154,0,-0.1244,-0.1219,-0.1241,-0.1222,-0.1188,-0.1223,-0.1193,-0.1216,-0.1236,-0.1203,-0.1292,-0.1269,-0.1368,-0.1392,-0.1448,-0.1465,-0.1478,-0.1497,-0.1506,-0.1398,-0.1387,-0.1472,-0.1569,-0.1539,-0.1539,-0.1539,-0.154,0,-0.1156,-0.1179,-0.1141,-0.1152,-0.1151,-0.1121,-0.112,-0.1098,-0.114,-0.1102,-0.1105,-0.117,-0.1198,-0.1295,-0.1353,-0.1406,-0.1479,-0.1448,-0.1313,-0.1305,-0.1386,-0.1485,-0.1552,-0.1614,-0.1428,-0.1427,-0.1426,0,-0.1099,-0.1074,-0.1067,-0.1033,-0.1027,-0.1004,-0.0978,-0.103,-0.1003,-0.1018,-0.0978,-0.1023,-0.0993,-0.1093,-0.1203,-0.1288,-0.1422,-0.1248,-0.1263,-0.1355,-0.1473,-0.1564,-0.162,-0.1112,-0.1109,-0.1106,-0.1104,0,-0.0969,-0.0972,-0.0938,-0.0885,-0.0852,-0.0819,-0.0793,-0.0764,-0.08,-0.0749,-0.0682,-0.0665,-0.0791,-0.0792,-0.0961,-0.1053,-0.1303,-0.1194,-0.1314,-0.1242,-0.1316,-0.1389,-0.1171,-0.1079,-0.1081,-0.1083,-0.1084,-0.1085,-0.0845,-0.079,-0.0751,-0.0685,-0.0661,-0.0602,-0.0514,-0.0483,-0.0393,-0.0234,-0.0342,-0.0147,-0.0318,-0.052,-0.0761,-0.1035,-0.1151,-0.1066,-0.1181,-0.1267,-0.1318,-0.1047,-0.0958,-0.0959,-0.0961,-0.0962,-0.0963,0,-0.0644,-0.0603,-0.0546,-0.0465,-0.0388,-0.0432,-0.0348,-0.021,-0.0018,0.0148,0.028,0.0476,0.0229,-0.0117,-0.0549,-0.0885,-0.1084,-0.1092,-0.1182,-0.1247,-0.0989,-0.0964,-0.0839,-0.0839,-0.0839,-0.0839,-0.0839,-0.0839,-0.0524,-0.04,-0.0378,-0.0201,-0.0155,0.0007,0.0094,0.0281,0.0462,0.0877,0.1175,0.1304,0.1118,0.0045,-0.07,-0.0939,-0.1235,-0.129,-0.1513,-0.1314,-0.132,-0.1327,-0.1323,-0.1276,-0.1276,-0.1669,-0.1673,-0.1676]}],[{"header":{"parameterUnit":"m.s-1","parameterCategory":2,"la1":30.2991,"la2":30.254,"lo1":-89.0895,"lo2":-89.0444,"dy":0.0017,"dx":0.0017,"nx":28,"ny":28,"refTime":"2023-10-13T03:00:00:Z","depth":"2","parameterNumber":2,"parameterNumberName":"U-component_of_CURRENTS"},"data":[0,0,0,0,0,0,0,0,0,0,0,0,0,0,0,0,0,0,0,0,0,0,0,0,0,0,0,0,0,0,0,0,0,0,0,0,0,0,0,0,0,0,0,0,0,0,0,0,0,0,0,0,0,0,0,0,0,0,0.1429,0.1429,0,0.1497,0.1498,0.1498,0.1507,0.1507,0.1506,0.1506,0.1521,0.1522,0.1523,0,0,0,0,0,0,0,0,0,0,0,0,0,0.1307,0.1309,0.1428,0.143,0.1431,0.1497,0.1498,0.1499,0.1507,0.1507,0.1506,0.1506,0.1521,0.1522,0.1523,0,0,0,0,0,0,0,0,0,0,0,0,0,0.1364,0.131,0.1428,0.1444,0.1447,0.1497,0.1498,0.1499,0.1508,0.1507,0.1506,0.1505,0.1521,0.1522,0.1523,0.1545,0,0,0.1527,0.1528,0,0,0,0,0,0,0,0,0.1361,0.1368,0.1441,0.1444,0.1446,0.1495,0.1461,0.1512,0.1508,0.1482,0.1506,0.1505,0.1509,0.1512,0.1524,0.1546,0.1547,0.1527,0.1528,0.1529,0.1529,0,0,0,0,0,0,0,0.1357,0.1365,0.1454,0.1442,0.1445,0.1449,0.1456,0.1471,0.1496,0.1484,0.1486,0.1497,0.151,0.1523,0.1524,0.1547,0.1527,0.1528,0.1529,0.153,0.1608,0.1609,0,0,0,0,0,0,0.1354,0.1362,0.1451,0.1456,0.1403,0.1452,0.146,0.1478,0.1497,0.1501,0.1497,0.1497,0.1521,0.1523,0.1525,0.1559,0.1529,0.153,0.1531,0.1607,0.1608,0.161,0,0,0,0,0,0,0.1351,0.1361,0.1449,0.1411,0.1423,0.1455,0.1475,0.148,0.1492,0.1508,0.151,0.1505,0.152,0.1523,0.1547,0.1559,0.153,0.1532,0.1605,0.1607,0.1609,0.1623,0,0,0,0,0,0,0.1347,0.136,0.1365,0.1412,0.1425,0.1478,0.1477,0.1482,0.1501,0.1501,0.1515,0.1516,0.152,0.1546,0.1549,0.156,0.1533,0.1603,0.1606,0.1608,0.1621,0.1625,0.1629,0,0,0,0,0,0.1343,0.1354,0.1365,0.1376,0.1434,0.1479,0.1486,0.1504,0.1502,0.1511,0.1526,0.1515,0.1563,0.1548,0.1551,0.1563,0.1602,0.1605,0.1608,0.1619,0.1624,0.1628,0,0,0,0,0,0,0.1296,0.1358,0.1371,0.1398,0.1436,0.1481,0.1489,0.1506,0.1527,0.1522,0.1533,0.1536,0.1564,0.1566,0.1549,0.1596,0.1581,0.1585,0.1588,0.1593,0.1597,0.1603,0.1534,0,0,0,0,0,0.1292,0.1321,0.1375,0.1395,0.1413,0.1451,0.1469,0.1487,0.1516,0.1523,0.1536,0.1554,0.1581,0.1587,0.1608,0.163,0.1659,0.1642,0.1646,0.1649,0.1659,0.1717,0.1727,0.1619,0.1619,0.1619,0,0,0.1276,0.1316,0.1329,0.1387,0.1414,0.145,0.1459,0.149,0.1519,0.1522,0.1553,0.1569,0.1592,0.1622,0.1634,0.1622,0.1698,0.1653,0.1655,0.1663,0.1721,0.1731,0.174,0.1621,0.1621,0.1621,0,0,0.1265,0.1298,0.1319,0.1357,0.1408,0.144,0.145,0.1499,0.1517,0.1553,0.1569,0.1597,0.1623,0.1652,0.1667,0.1708,0.1721,0.1708,0.1727,0.1783,0.1792,0.1801,0.1861,0.1874,0.1705,0.1705,0.1705,0,0.1238,0.1283,0.1329,0.1364,0.1394,0.1437,0.1466,0.1502,0.155,0.1578,0.1561,0.1634,0.1642,0.1703,0.1713,0.1716,0.1752,0.1702,0.1788,0.1797,0.1805,0.1864,0.1879,0.1706,0.1706,0.1706,0.1706,0,0.1254,0.1287,0.1303,0.1368,0.1406,0.1437,0.1498,0.1534,0.1556,0.1595,0.1652,0.1673,0.1719,0.1722,0.1725,0.1793,0.1802,0.1789,0.1772,0.1817,0.1877,0.1892,0.1707,0.1707,0.1707,0.1706,0,0,0.1194,0.1293,0.1296,0.1332,0.1411,0.1446,0.1505,0.1577,0.1628,0.1659,0.1722,0.1756,0.1771,0.1792,0.1804,0.184,0.1922,0.1835,0.1837,0.1889,0.2058,0.2004,0.2016,0.1923,0.1926,0.1928,0.2079,0,0.1186,0.1247,0.1304,0.136,0.1398,0.1469,0.1526,0.1598,0.1655,0.1729,0.1767,0.1823,0.1799,0.1821,0.1859,0.1913,0.1962,0.1883,0.2012,0.2016,0.1959,0.2031,0.1881,0.1997,0.2094,0.2096,0.2098,0,0.1179,0.1229,0.128,0.1377,0.14,0.1443,0.1554,0.1613,0.1731,0.1775,0.1843,0.1881,0.1956,0.1916,0.2036,0.1988,0.2028,0.2058,0.2064,0.2019,0.1991,0.1968,0.2021,0.2124,0.2122,0.212,0.2118,0,0.1123,0.1208,0.1251,0.1284,0.14,0.1441,0.1504,0.1622,0.1687,0.1814,0.1873,0.1962,0.2016,0.2077,0.2137,0.2096,0.227,0.2222,0.2219,0.2217,0.2117,0.21,0.2315,0.2314,0.2314,0.2314,0.2313,0,0.1098,0.113,0.123,0.1259,0.132,0.1412,0.1493,0.1578,0.1704,0.1798,0.189,0.1982,0.2057,0.2159,0.2193,0.2267,0.2323,0.2248,0.2258,0.2118,0.21,0.2222,0.2209,0.2319,0.2318,0.2317,0.2316,0,0.1033,0.1096,0.1154,0.1266,0.1298,0.1343,0.1472,0.1542,0.1669,0.18,0.1841,0.2016,0.2161,0.2245,0.237,0.2338,0.2411,0.2423,0.2255,0.2241,0.2305,0.2292,0.243,0.243,0.2429,0.2429,0.2428,0,0.1006,0.1031,0.1137,0.117,0.122,0.1299,0.1363,0.1502,0.1591,0.1824,0.1891,0.2076,0.2175,0.2349,0.2385,0.2456,0.2482,0.2321,0.2195,0.2325,0.2321,0.2308,0.2295,0.2084,0.2081,0.2079,0.2076,0,0.0956,0.0993,0.1043,0.1116,0.1179,0.1252,0.1358,0.1422,0.161,0.1733,0.1925,0.2015,0.2197,0.2212,0.2295,0.2304,0.2287,0.2268,0.2488,0.2058,0.2005,0.1999,0.1997,0.2054,0.2056,0.2058,0.2059,0.206,0.0905,0.0924,0.0994,0.1063,0.1129,0.1209,0.1269,0.1395,0.1528,0.1691,0.1823,0.1912,0.2002,0.2048,0.2058,0.2089,0.2208,0.2101,0.2107,0.2116,0.2029,0.1975,0.2004,0.2006,0.2008,0.2009,0.201,0,0.0849,0.0885,0.0941,0.103,0.1094,0.1144,0.1273,0.1324,0.1462,0.1583,0.1682,0.1602,0.1651,0.1775,0.1785,0.1793,0.1747,0.1734,0.1666,0.1692,0.1714,0.1603,0.1468,0.1465,0.1463,0.1461,0,0,0.0819,0.0851,0.0898,0.0983,0.1042,0.1128,0.1193,0.124,0.1334,0.1354,0.1393,0.1499,0.167,0.1512,0.1545,0.1512,0.1571,0.1459,0.1902,0.1846,0.1864,0.1948,0.1809,0,0,0,0,0]},{"header":{"parameterUnit":"m.s-1","parameterCategory":2,"la1":30.2991,"la2":30.254,"lo1":-89.0895,"lo2":-89.0444,"dy":0.0017,"dx":0.0017,"nx":28,"ny":28,"refTime":"2023-10-13T03:00:00:Z","depth":"2","parameterNumber":3,"parameterNumberName":"V-component_of_CURRENTS"},"data":[0,0,0,0,0,0,0,0,0,0,0,0,0,0,0,0,0,0,0,0,0,0,0,0,0,0,0,0,0,0,0,0,0,0,0,0,0,0,0,0,0,0,0,0,0,0,0,0,0,0,0,0,0,0,0,0,0,0,0.0422,0.0421,0,0.0355,0.0354,0.0353,0.029,0.0289,0.0289,0.0288,0.019,0.0188,0.0186,0,0,0,0,0,0,0,0,0,0,0,0,0,0.0475,0.0474,0.0422,0.0421,0.042,0.0355,0.0354,0.0353,0.029,0.0289,0.0288,0.0288,0.0191,0.0188,0.0186,0,0,0,0,0,0,0,0,0,0,0,0,0,0.0434,0.0474,0.0422,0.0381,0.0377,0.0355,0.0354,0.0353,0.0291,0.0289,0.0288,0.0287,0.0191,0.0189,0.0186,0.0192,0,0,0.0177,0.0176,0,0,0,0,0,0,0,0,0.0437,0.0433,0.0388,0.0384,0.0379,0.033,0.0337,0.0298,0.0291,0.0323,0.0288,0.0287,0.0235,0.0228,0.0219,0.0187,0.0183,0.0177,0.0175,0.0174,0.0173,0,0,0,0,0,0,0,0.044,0.0435,0.0395,0.0387,0.0382,0.0359,0.0352,0.0329,0.0286,0.032,0.0316,0.0309,0.0232,0.0222,0.0216,0.0182,0.0177,0.0175,0.0173,0.0172,0.0116,0.0116,0,0,0,0,0,0,0.0451,0.0438,0.0397,0.0393,0.0406,0.0359,0.0352,0.0347,0.0286,0.0276,0.031,0.0306,0.0227,0.0219,0.0212,0.0196,0.0174,0.0171,0.017,0.0116,0.0116,0.0116,0,0,0,0,0,0,0.0452,0.0448,0.04,0.0414,0.0406,0.036,0.0355,0.0346,0.0325,0.0279,0.0268,0.0297,0.0226,0.0216,0.0187,0.0192,0.017,0.0168,0.0116,0.0116,0.0116,0.0176,0,0,0,0,0,0,0.0454,0.0449,0.0448,0.0415,0.0406,0.0392,0.0356,0.0346,0.0323,0.0317,0.0264,0.0254,0.0224,0.0192,0.0184,0.0188,0.0165,0.0115,0.0116,0.0116,0.0174,0.0178,0.0182,0,0,0,0,0,0.0456,0.0468,0.0449,0.0444,0.0407,0.0393,0.0387,0.0349,0.0324,0.0324,0.0283,0.0256,0.0189,0.019,0.0181,0.0184,0.0115,0.0116,0.0116,0.0172,0.0177,0.0182,0,0,0,0,0,0,0.0493,0.0461,0.044,0.0441,0.0418,0.0382,0.0378,0.0351,0.0319,0.0308,0.026,0.0248,0.0224,0.0197,0.0199,0.0168,0.0147,0.0146,0.0192,0.0197,0.0201,0.0216,0.0163,0,0,0,0,0,0.0501,0.0498,0.0465,0.0465,0.0455,0.0415,0.0402,0.0377,0.0345,0.0329,0.0288,0.0249,0.0222,0.0204,0.0175,0.0162,0.0133,0.0157,0.0161,0.0165,0.0171,0.0133,0.0135,0.0118,0.0118,0.0118,0,0,0.0516,0.0497,0.0495,0.0472,0.0449,0.0449,0.0404,0.039,0.0386,0.0325,0.0302,0.0262,0.0222,0.0204,0.0191,0.018,0.0155,0.0165,0.0169,0.0173,0.0134,0.0136,0.0137,0.0118,0.0118,0.0118,0,0,0.055,0.0526,0.0536,0.0522,0.0493,0.0472,0.0469,0.0428,0.0406,0.038,0.0337,0.0302,0.0253,0.023,0.0212,0.0224,0.0179,0.0209,0.0242,0.0206,0.0208,0.0208,0.0178,0.0176,0.0211,0.0212,0.0212,0,0.0566,0.0573,0.0538,0.0545,0.054,0.0486,0.05,0.0475,0.0428,0.0416,0.0379,0.0309,0.0269,0.0258,0.0255,0.0235,0.0205,0.0228,0.0213,0.0213,0.0212,0.0181,0.0178,0.0214,0.0214,0.0214,0.0214,0,0.0609,0.0611,0.0618,0.0607,0.06,0.0602,0.0568,0.055,0.0507,0.0476,0.0439,0.0377,0.0335,0.0316,0.0285,0.0269,0.0245,0.0223,0.0203,0.0218,0.0184,0.0179,0.0219,0.0218,0.0217,0.0216,0,0,0.0648,0.0648,0.0649,0.0658,0.0633,0.0635,0.0632,0.0617,0.0617,0.0548,0.054,0.0474,0.0423,0.0399,0.0351,0.0315,0.0282,0.0268,0.0264,0.0244,0.0201,0.0193,0.0186,0.0251,0.0251,0.025,0.0179,0,0.0689,0.0722,0.0709,0.074,0.0755,0.0718,0.0726,0.0702,0.0663,0.0641,0.0565,0.053,0.0461,0.0432,0.0386,0.0308,0.0271,0.0303,0.0184,0.0181,0.0176,0.0181,0.0155,0.009,0.0174,0.0174,0.0173,0,0.0733,0.075,0.079,0.081,0.0814,0.0823,0.0826,0.0825,0.0783,0.0748,0.0692,0.0623,0.0555,0.0492,0.0363,0.0383,0.0297,0.0233,0.0229,0.0198,0.0164,0.0086,0.0078,0.0165,0.0165,0.0166,0.0166,0,0.0778,0.0807,0.0843,0.0848,0.0861,0.0872,0.0875,0.0854,0.086,0.0809,0.0793,0.0699,0.0638,0.0526,0.0374,0.0362,0.0237,0.0206,0.0124,0.0122,0.0066,0.0061,0.0123,0.0123,0.0124,0.0124,0.0124,0,0.0825,0.0852,0.0867,0.0886,0.0932,0.0922,0.0961,0.0945,0.0935,0.0952,0.0844,0.0834,0.0638,0.0537,0.0406,0.0252,0.0256,0.0133,0.0104,0.0086,0.0084,0.0121,0.0122,0.0121,0.0122,0.0122,0.0123,0,0.086,0.087,0.0916,0.0943,0.0953,0.0983,0.1014,0.1044,0.1017,0.1034,0.1015,0.0914,0.0784,0.0602,0.0417,0.0291,0.0153,0.01,0.0095,0.0068,0.0054,0.0058,-0.0001,-0.0002,-0.0002,-0.0003,-0.0004,0,0.0876,0.0904,0.0955,0.0982,0.0992,0.1034,0.1071,0.1078,0.1118,0.1099,0.112,0.0993,0.0927,0.0654,0.0405,0.0175,0.016,0.0006,-0.0018,0.0064,0.0041,0.0047,0.0052,-0.0075,-0.0076,-0.0077,-0.0077,0,0.0904,0.0923,0.0957,0.1018,0.1063,0.1129,0.1182,0.1231,0.125,0.1271,0.1293,0.1238,0.0956,0.0694,0.0354,0.0201,0.0039,-0.0017,0.0056,-0.0027,-0.0009,-0.0029,-0.0022,-0.0085,-0.0084,-0.0084,-0.0083,-0.0083,0.0912,0.0942,0.0988,0.1047,0.111,0.1205,0.1261,0.1343,0.1423,0.1426,0.1401,0.1289,0.1009,0.0545,0.0275,-0.0024,0.0016,-0.0106,-0.0103,-0.0099,-0.0082,-0.0065,-0.0149,-0.0149,-0.0148,-0.0148,-0.0148,0,0.0911,0.0947,0.101,0.1088,0.1164,0.12,0.1321,0.1387,0.1496,0.1477,0.146,0.1151,0.0843,0.0531,0.0076,-0.0162,-0.0194,-0.0244,-0.0239,-0.023,-0.0222,-0.0211,-0.0313,-0.0314,-0.0315,-0.0316,0,0,0.0906,0.0956,0.0998,0.1109,0.117,0.1278,0.1349,0.1464,0.1497,0.1472,0.1369,0.1228,0.0894,0.0535,0.0199,-0.0065,-0.009,-0.0119,0.0037,0.0091,0.0102,-0.0121,-0.0091,0,0,0,0,0]}],[{"header":{"parameterUnit":"m.s-1","parameterCategory":2,"la1":30.2991,"la2":30.254,"lo1":-89.0895,"lo2":-89.0444,"dy":0.0017,"dx":0.0017,"nx":28,"ny":28,"refTime":"2023-10-13T03:00:00:Z","depth":"4","parameterNumber":2,"parameterNumberName":"U-component_of_CURRENTS"},"data":[0,0,0,0,0,0,0,0,0,0,0,0,0,0,0,0,0,0,0,0,0,0,0,0,0,0,0,0,0,0,0,0,0,0,0,0,0,0,0,0,0,0,0,0,0,0,0,0,0,0,0,0,0,0,0,0,0,0,0.0777,0.0777,0,0.0806,0.0806,0.0806,0.0843,0.0843,0.0844,0.0844,0.0858,0.0858,0.0858,0,0,0,0,0,0,0,0,0,0,0,0,0,0.0731,0.0732,0.0777,0.0777,0.0778,0.0805,0.0806,0.0806,0.0843,0.0843,0.0844,0.0845,0.0859,0.0858,0.0858,0,0,0,0,0,0,0,0,0,0,0,0,0,0.0755,0.0733,0.0777,0.0799,0.0801,0.0805,0.0806,0.0806,0.0842,0.0843,0.0844,0.0845,0.0859,0.0858,0.0858,0.0839,0,0,0.0857,0.0857,0,0,0,0,0,0,0,0,0.0753,0.0756,0.0796,0.0798,0.08,0.0822,0.0795,0.0816,0.0842,0.0827,0.0844,0.0846,0.0844,0.0845,0.0849,0.0839,0.084,0.0857,0.0857,0.0857,0.0857,0,0,0,0,0,0,0,0.0752,0.0755,0.0788,0.0796,0.0799,0.08,0.0805,0.0799,0.083,0.0828,0.0831,0.0834,0.0845,0.0849,0.0849,0.084,0.0857,0.0857,0.0857,0.0857,0.0902,0.0904,0,0,0,0,0,0,0.0749,0.0754,0.0787,0.0789,0.0779,0.08,0.0805,0.0814,0.083,0.0834,0.0833,0.0836,0.0849,0.0849,0.085,0.0904,0.0857,0.0857,0.0857,0.0901,0.0903,0.0904,0,0,0,0,0,0,0.0748,0.0751,0.0786,0.0772,0.0776,0.08,0.0809,0.0814,0.0845,0.0834,0.0838,0.0863,0.085,0.085,0.0865,0.0902,0.0857,0.0856,0.0899,0.0902,0.0903,0.0964,0,0,0,0,0,0,0.0746,0.0751,0.0766,0.0772,0.0777,0.0806,0.0809,0.0814,0.0843,0.0848,0.086,0.0861,0.085,0.0866,0.0865,0.0901,0.0856,0.0898,0.09,0.0903,0.096,0.0968,0.0974,0,0,0,0,0,0.0745,0.0756,0.0767,0.0772,0.0794,0.0806,0.081,0.0829,0.0844,0.086,0.0868,0.0862,0.0882,0.0866,0.0865,0.0902,0.0896,0.09,0.0903,0.0957,0.0966,0.0974,0,0,0,0,0,0,0.074,0.0761,0.0773,0.0791,0.0807,0.0813,0.083,0.0844,0.0864,0.0875,0.0868,0.0869,0.0898,0.0889,0.0872,0.0924,0.0893,0.0896,0.0935,0.0943,0.095,0.0951,0.0856,0,0,0,0,0,0.0747,0.0767,0.0781,0.0798,0.0808,0.0826,0.0838,0.0853,0.0865,0.0877,0.0887,0.0897,0.0905,0.0916,0.0917,0.0939,0.0934,0.0966,0.0973,0.0979,0.098,0.0985,0.0992,0.0914,0.0914,0.0914,0,0,0.075,0.0763,0.0776,0.0799,0.0815,0.083,0.0837,0.0863,0.0882,0.0872,0.0909,0.0918,0.0914,0.0942,0.0956,0.0944,0.1006,0.0983,0.0988,0.0986,0.0989,0.0997,0.1003,0.0916,0.0916,0.0916,0,0,0.0755,0.078,0.0797,0.0814,0.0842,0.085,0.0865,0.089,0.0913,0.0942,0.0944,0.0967,0.0988,0.099,0.0991,0.1035,0.1038,0.1059,0.11,0.1106,0.1112,0.1117,0.1149,0.1157,0.1068,0.1068,0.1068,0,0.076,0.0783,0.0803,0.0821,0.0838,0.0862,0.0882,0.0901,0.0932,0.0956,0.0963,0.1007,0.1004,0.103,0.1056,0.105,0.1071,0.1068,0.1114,0.1119,0.1123,0.1155,0.1162,0.1071,0.1071,0.1071,0.107,0,0.0773,0.0798,0.081,0.0842,0.0861,0.0885,0.0909,0.0946,0.098,0.1001,0.1052,0.1052,0.108,0.1094,0.1092,0.1135,0.1148,0.1117,0.109,0.1135,0.1165,0.1172,0.1076,0.1075,0.1074,0.1073,0,0,0.0764,0.0812,0.0819,0.084,0.088,0.0895,0.0935,0.0977,0.1011,0.1055,0.1101,0.1127,0.115,0.1153,0.116,0.1176,0.1233,0.118,0.1178,0.1209,0.1285,0.1239,0.1241,0.1223,0.1224,0.1225,0.1304,0,0.0772,0.0807,0.0831,0.0868,0.0887,0.0929,0.0956,0.1,0.1046,0.1095,0.1123,0.1164,0.1164,0.1197,0.1211,0.123,0.125,0.1216,0.1239,0.124,0.119,0.1246,0.1228,0.1309,0.1311,0.1312,0.1312,0,0.0772,0.0798,0.0836,0.0884,0.0898,0.0925,0.0991,0.1023,0.1091,0.1134,0.1191,0.1216,0.127,0.1246,0.1301,0.1293,0.1297,0.1301,0.1303,0.1237,0.1205,0.1249,0.1324,0.1323,0.1322,0.1322,0.1321,0,0.0746,0.0799,0.0832,0.085,0.0904,0.0942,0.098,0.1044,0.1088,0.1174,0.1229,0.1275,0.1327,0.1335,0.1371,0.1349,0.1423,0.1375,0.1333,0.1331,0.132,0.1313,0.1387,0.1387,0.1387,0.1387,0.1387,0,0.0733,0.0763,0.0829,0.0848,0.0891,0.0936,0.0993,0.1048,0.1127,0.118,0.1253,0.1304,0.1356,0.1407,0.1402,0.1414,0.1448,0.1354,0.1346,0.1349,0.1344,0.1327,0.1318,0.139,0.1389,0.1389,0.1388,0,0.0693,0.0739,0.0777,0.0849,0.088,0.0912,0.1009,0.1045,0.1139,0.1217,0.1256,0.1364,0.1436,0.1478,0.151,0.1463,0.1461,0.1445,0.1492,0.1483,0.1358,0.1353,0.1399,0.1398,0.1398,0.1397,0.1396,0,0.0675,0.0687,0.0772,0.0801,0.0842,0.0904,0.0943,0.1044,0.1091,0.1235,0.1267,0.1387,0.1441,0.1464,0.1505,0.1513,0.1478,0.1477,0.1371,0.1372,0.1359,0.1354,0.135,0.1395,0.1395,0.1394,0.1394,0,0.0627,0.0662,0.0696,0.0758,0.0811,0.0855,0.0931,0.0964,0.1073,0.118,0.1247,0.1294,0.1381,0.1418,0.1461,0.1444,0.1476,0.1466,0.1466,0.1366,0.1366,0.1353,0.135,0.1391,0.1392,0.1392,0.1392,0,0.0591,0.0599,0.065,0.0697,0.0759,0.0785,0.0833,0.0895,0.0956,0.1118,0.1137,0.1255,0.1359,0.1385,0.1411,0.1421,0.1374,0.13,0.1307,0.1312,0.1247,0.1232,0.122,0,0,0,0,0,0.0539,0.0547,0.0587,0.0631,0.069,0.0724,0.0813,0.0861,0.0979,0.0995,0.1063,0.113,0.1199,0.1266,0.1255,0.1372,0.1378,0.1354,0.1295,0.1374,0.1378,0.131,0,0,0,0,0,0,0.0506,0.0538,0.0557,0.0566,0.0586,0.0635,0.0682,0.0758,0.0777,0.0907,0.0951,0.1056,0.1141,0.1187,0.1229,0.1251,0.1189,0.1435,0.1432,0.1372,0.1375,0.1378,0.131,0,0,0,0,0]},{"header":{"parameterUnit":"m.s-1","parameterCategory":2,"la1":30.2991,"la2":30.254,"lo1":-89.0895,"lo2":-89.0444,"dy":0.0017,"dx":0.0017,"nx":28,"ny":28,"refTime":"2023-10-13T03:00:00:Z","depth":"4","parameterNumber":3,"parameterNumberName":"V-component_of_CURRENTS"},"data":[0,0,0,0,0,0,0,0,0,0,0,0,0,0,0,0,0,0,0,0,0,0,0,0,0,0,0,0,0,0,0,0,0,0,0,0,0,0,0,0,0,0,0,0,0,0,0,0,0,0,0,0,0,0,0,0,0,0,0.0203,0.0203,0,0.015,0.0149,0.0148,0.0126,0.0126,0.0126,0.0126,0.0051,0.0049,0.0047,0,0,0,0,0,0,0,0,0,0,0,0,0,0.0253,0.0252,0.0203,0.0203,0.0202,0.015,0.0149,0.0148,0.0126,0.0126,0.0126,0.0126,0.0052,0.005,0.0047,0,0,0,0,0,0,0,0,0,0,0,0,0,0.0218,0.0252,0.0203,0.0185,0.0183,0.015,0.0149,0.0148,0.0126,0.0126,0.0126,0.0126,0.0053,0.005,0.0047,0.0023,0,0,0.0037,0.0036,0,0,0,0,0,0,0,0,0.022,0.0217,0.0188,0.0186,0.0183,0.0145,0.0139,0.0105,0.0126,0.0147,0.0126,0.0126,0.0081,0.0075,0.0065,0.002,0.0016,0.0037,0.0035,0.0033,0.0033,0,0,0,0,0,0,0,0.0223,0.0219,0.0182,0.0187,0.0185,0.0168,0.0163,0.0132,0.0113,0.0145,0.0143,0.0138,0.0079,0.0068,0.0063,0.0015,0.0037,0.0034,0.0032,0.0031,-0.007,-0.0071,0,0,0,0,0,0,0.0232,0.0221,0.0183,0.018,0.0203,0.0167,0.0162,0.0157,0.0113,0.0107,0.0138,0.0137,0.0073,0.0066,0.006,0.0027,0.0033,0.0031,0.0029,-0.007,-0.0071,-0.0071,0,0,0,0,0,0,0.0233,0.0229,0.0186,0.02,0.0193,0.0166,0.016,0.0156,0.0146,0.0108,0.0102,0.0134,0.0073,0.0064,0.0029,0.0024,0.0029,0.0026,-0.0069,-0.007,-0.0071,-0.0036,0,0,0,0,0,0,0.0235,0.023,0.0232,0.02,0.0192,0.0169,0.016,0.0154,0.0142,0.0141,0.0102,0.0095,0.0072,0.0034,0.0026,0.002,0.0024,-0.0068,-0.0069,-0.0071,-0.0037,-0.0036,-0.0036,0,0,0,0,0,0.0237,0.0238,0.0232,0.0228,0.0196,0.0169,0.0163,0.0144,0.0142,0.0137,0.0108,0.0097,0.0019,0.0031,0.0022,0.0015,-0.0067,-0.0069,-0.007,-0.0037,-0.0036,-0.0036,0,0,0,0,0,0,0.026,0.0235,0.0228,0.0222,0.0199,0.0165,0.0161,0.0147,0.012,0.012,0.0087,0.0077,0.0042,0.0021,0.0035,-0.0021,-0.0026,-0.003,0.0003,0.0003,0.0003,0.003,0.0021,0,0,0,0,0,0.0266,0.0263,0.0233,0.0228,0.0219,0.0191,0.018,0.0165,0.0137,0.0126,0.0097,0.0063,0.0026,0.0011,-0.0025,-0.0052,-0.0062,-0.0065,-0.0064,-0.0064,-0.005,-0.0081,-0.0081,-0.0077,-0.0077,-0.0077,0,0,0.0275,0.0261,0.0259,0.0234,0.0216,0.0202,0.0185,0.0169,0.0158,0.0121,0.0098,0.0061,0.0017,-0.0016,-0.0033,-0.0032,-0.007,-0.0066,-0.0065,-0.0051,-0.0083,-0.0083,-0.0083,-0.0078,-0.0078,-0.0078,0,0,0.0286,0.0277,0.0275,0.0258,0.0233,0.0214,0.0212,0.0178,0.0165,0.0135,0.0103,0.0067,0.0015,-0.0016,-0.0039,-0.006,-0.0071,-0.0074,-0.0045,-0.0076,-0.0076,-0.0076,-0.0079,-0.008,-0.0069,-0.0069,-0.0069,0,0.0298,0.0291,0.027,0.026,0.0253,0.0222,0.0218,0.0196,0.0155,0.0146,0.0133,0.0055,0.0016,-0.0023,-0.003,-0.0057,-0.0065,-0.0039,-0.0073,-0.0073,-0.0074,-0.0078,-0.0079,-0.0068,-0.0068,-0.0068,-0.0068,0,0.0302,0.0298,0.0295,0.0276,0.0264,0.0255,0.0225,0.0211,0.0194,0.0169,0.013,0.0075,0.0035,0.0008,-0.0016,-0.0044,-0.0045,-0.0071,-0.0066,-0.0072,-0.0076,-0.0078,-0.0066,-0.0066,-0.0066,-0.0067,0,0,0.0324,0.0304,0.0304,0.0305,0.0275,0.0268,0.0252,0.0231,0.0231,0.0183,0.0176,0.0102,0.0081,0.0054,0.0012,-0.0014,-0.003,-0.0035,-0.0038,-0.0024,-0.0074,-0.0067,-0.0068,-0.006,-0.0061,-0.0061,-0.0071,0,0.0335,0.0334,0.0317,0.032,0.0318,0.0294,0.0286,0.0263,0.0241,0.0225,0.0169,0.0143,0.0095,0.0083,0.0045,-0.0014,-0.0035,-0.0023,-0.0083,-0.0084,-0.0066,-0.007,-0.0063,-0.0072,-0.0073,-0.0073,-0.0073,0,0.034,0.0344,0.0353,0.0352,0.035,0.0349,0.0347,0.0334,0.0301,0.0287,0.0251,0.021,0.0162,0.0124,0.0036,0.0048,-0.0003,-0.0048,-0.005,-0.0053,-0.008,-0.0071,-0.0077,-0.0077,-0.0076,-0.0076,-0.0076,0,0.037,0.0367,0.0384,0.0381,0.0372,0.0381,0.0379,0.0356,0.0367,0.0335,0.0348,0.0268,0.0253,0.0163,0.0072,0.0056,-0.0015,-0.0054,-0.0093,-0.0092,-0.0109,-0.0109,-0.0108,-0.0108,-0.0108,-0.0108,-0.0108,0,0.0384,0.0396,0.0404,0.0413,0.0443,0.0421,0.0451,0.0437,0.0437,0.0462,0.0391,0.0399,0.0264,0.0204,0.0101,0.0011,0.0006,-0.0077,-0.0096,-0.0094,-0.0092,-0.0109,-0.0109,-0.0109,-0.0109,-0.0108,-0.0108,0,0.0401,0.0406,0.0428,0.0443,0.0457,0.0477,0.0516,0.0536,0.0533,0.0568,0.057,0.0509,0.0431,0.0301,0.0166,0.0072,-0.0034,-0.0064,-0.0022,-0.004,-0.0096,-0.0094,-0.011,-0.011,-0.011,-0.011,-0.0109,0,0.0403,0.0417,0.0462,0.0491,0.0502,0.054,0.0572,0.0584,0.0615,0.0639,0.0662,0.0609,0.055,0.0378,0.0223,0.0037,-0.0001,-0.0053,-0.0106,-0.0079,-0.0097,-0.0095,-0.0094,-0.0109,-0.0109,-0.0109,-0.0109,0,0.0407,0.043,0.0457,0.0525,0.0571,0.0622,0.067,0.0707,0.0729,0.0743,0.0746,0.0652,0.057,0.0399,0.0264,0.012,-0.0027,-0.0053,-0.0056,-0.0106,-0.0079,-0.0096,-0.0095,-0.0109,-0.0109,-0.0109,-0.0109,0,0.0413,0.0439,0.0489,0.0546,0.0613,0.0676,0.0701,0.0743,0.0776,0.0802,0.0805,0.0705,0.0646,0.0445,0.0316,0.018,0.0126,0.0056,0.0047,0.0045,0.0076,0.0131,0.016,0,0,0,0,0,0.0408,0.0447,0.0505,0.0572,0.0643,0.0684,0.0755,0.0775,0.0816,0.0827,0.0817,0.0738,0.0555,0.0474,0.034,0.0295,0.009,0.013,0.0001,-0.0107,-0.0107,-0.0099,0,0,0,0,0,0,0.0407,0.0463,0.0501,0.0584,0.0636,0.0715,0.0762,0.0789,0.0791,0.0814,0.072,0.069,0.051,0.0635,0.0335,0.0295,0.019,0.005,0.0047,-0.0107,-0.0107,-0.0107,-0.0099,0,0,0,0,0]}]]